�������l�o���
Date,Time,MP-1(��Sv/h),MP-2(��Sv/h),MP-3(��Sv/h),MP-4(��Sv/h),MP-5(��Sv/h),MP-6(��Sv/h),MP-7(��Sv/h),MP-8(��Sv/h),����,����(m/s),���J
2019/08/27,00:00,0.769,1.090,0.751,1.345,0.989,0.430,0.751,0.707,�k�k��,0.6,��
2019/08/27,00:10,0.770,1.091,0.751,1.348,0.989,0.430,0.749,0.707,-,CALM,��
2019/08/27,00:20,0.770,1.091,0.753,1.345,0.992,0.430,0.749,0.708,�k��,0.9,��
2019/08/27,00:30,0.768,1.092,0.754,1.344,0.989,0.429,0.748,0.708,�k��,0.6,��
2019/08/27,00:40,0.769,1.092,0.753,1.344,0.990,0.428,0.751,0.709,�k��,1.2,��
2019/08/27,00:50,0.768,1.092,0.752,1.346,0.991,0.431,0.749,0.708,��,0.8,��
2019/08/27,01:00,0.769,1.089,0.754,1.344,0.991,0.431,0.749,0.707,�쓌,0.6,��
2019/08/27,01:10,0.769,1.091,0.751,1.345,0.987,0.430,0.749,0.706,�k,0.9,��
2019/08/27,01:20,0.769,1.089,0.753,1.343,0.993,0.431,0.750,0.705,-,CALM,��
2019/08/27,01:30,0.769,1.089,0.755,1.343,0.992,0.431,0.750,0.708,�k��,0.8,��
2019/08/27,01:40,0.768,1.090,0.753,1.345,0.989,0.429,0.750,0.708,���k��,0.8,��
2019/08/27,01:50,0.768,1.088,0.752,1.345,0.990,0.430,0.750,0.706,�k��,1.1,��
2019/08/27,02:00,0.770,1.090,0.753,1.344,0.990,0.430,0.750,0.708,�k��,0.6,��
2019/08/27,02:10,0.769,1.090,0.752,1.344,0.991,0.430,0.749,0.707,�k�k��,0.9,��
2019/08/27,02:20,0.768,1.090,0.752,1.346,0.991,0.430,0.750,0.706,�k,0.6,��
2019/08/27,02:30,0.770,1.092,0.753,1.344,0.991,0.430,0.748,0.708,�k��,0.6,��
2019/08/27,02:40,0.768,1.089,0.753,1.342,0.989,0.430,0.749,0.708,-,CALM,��
2019/08/27,02:50,0.770,1.092,0.751,1.346,0.991,0.431,0.750,0.707,�k�k��,0.8,��
2019/08/27,03:00,0.767,1.090,0.754,1.346,0.992,0.430,0.750,0.709,���k��,0.6,�L
2019/08/27,03:10,0.768,1.088,0.752,1.346,0.987,0.430,0.750,0.708,�k�k��,0.6,��
2019/08/27,03:20,0.769,1.091,0.753,1.344,0.991,0.430,0.750,0.707,-,CALM,��
2019/08/27,03:30,0.768,1.088,0.750,1.345,0.989,0.430,0.750,0.707,�k�k��,0.6,��
2019/08/27,03:40,0.768,1.091,0.749,1.345,0.988,0.431,0.750,0.708,�k�k��,0.9,��
2019/08/27,03:50,0.769,1.087,0.752,1.346,0.991,0.430,0.748,0.707,�k��,1.5,��
2019/08/27,04:00,0.769,1.088,0.752,1.343,0.990,0.431,0.750,0.709,�k��,1.7,��
2019/08/27,04:10,0.767,1.089,0.752,1.344,0.990,0.429,0.749,0.706,���k��,1.2,��
2019/08/27,04:20,0.767,1.087,0.752,1.345,0.989,0.430,0.749,0.707,�k��,1.4,��
2019/08/27,04:30,0.768,1.091,0.751,1.344,0.989,0.430,0.749,0.707,�k�k��,0.6,��
2019/08/27,04:40,0.769,1.090,0.750,1.346,0.989,0.427,0.751,0.708,�k��,0.6,��
2019/08/27,04:50,0.767,1.091,0.752,1.344,0.990,0.429,0.749,0.708,-,CALM,��
2019/08/27,05:00,0.770,1.087,0.753,1.344,0.990,0.430,0.748,0.707,��,0.6,��
2019/08/27,05:10,0.767,1.090,0.755,1.348,0.988,0.428,0.749,0.707,���쐼,0.6,��
2019/08/27,05:20,0.769,1.088,0.751,1.345,0.989,0.430,0.748,0.707,-,CALM,��
2019/08/27,05:30,0.767,1.088,0.753,1.345,0.990,0.429,0.751,0.706,-,CALM,��
2019/08/27,05:40,0.768,1.089,0.754,1.343,0.988,0.429,0.750,0.707,-,CALM,��
2019/08/27,05:50,0.768,1.089,0.753,1.344,0.991,0.430,0.749,0.709,-,CALM,��
2019/08/27,06:00,0.768,1.088,0.752,1.345,0.989,0.430,0.749,0.707,-,CALM,��
2019/08/27,06:10,0.767,1.089,0.753,1.344,0.989,0.430,0.750,0.708,�k�k��,0.6,��
2019/08/27,06:20,0.770,1.090,0.754,1.344,0.990,0.428,0.749,0.706,�k��,1.2,��
2019/08/27,06:30,0.770,1.090,0.754,1.344,0.990,0.430,0.750,0.708,�k��,1.2,��
2019/08/27,06:40,0.768,1.088,0.751,1.344,0.989,0.430,0.749,0.708,�k��,1.1,��
2019/08/27,06:50,0.769,1.090,0.752,1.343,0.989,0.429,0.751,0.707,���k��,0.6,��
2019/08/27,07:00,0.768,1.090,0.750,1.343,0.989,0.430,0.749,0.706,�k��,1.2,��
2019/08/27,07:10,0.769,1.088,0.753,1.343,0.989,0.429,0.749,0.710,��,1.4,��
2019/08/27,07:20,0.766,1.087,0.751,1.344,0.991,0.429,0.749,0.705,��,1.2,��
2019/08/27,07:30,0.767,1.088,0.753,1.341,0.989,0.428,0.748,0.708,��,0.9,��
2019/08/27,07:40,0.768,1.088,0.752,1.344,0.989,0.429,0.749,0.708,���k��,0.6,��
2019/08/27,07:50,0.768,1.087,0.749,1.344,0.987,0.428,0.751,0.707,���k��,0.9,��
2019/08/27,08:00,0.769,1.085,0.752,1.345,0.986,0.429,0.750,0.709,�k�k��,0.6,��
2019/08/27,08:10,0.770,1.086,0.750,1.345,0.990,0.426,0.748,0.707,�k��,1.5,��
2019/08/27,08:20,0.768,1.083,0.748,1.343,0.989,0.428,0.750,0.707,-,CALM,��
2019/08/27,08:30,0.769,1.085,0.750,1.343,0.987,0.428,0.749,0.707,���쓌,1.4,��
2019/08/27,08:40,0.769,1.083,0.751,1.342,0.990,0.426,0.749,0.705,���k��,1.7,��
2019/08/27,08:50,0.768,1.080,0.751,1.343,0.992,0.428,0.749,0.704,��,2.2,��
2019/08/27,09:00,0.771,1.085,0.750,1.345,0.988,0.427,0.749,0.703,��,1.5,��
2019/08/27,09:10,0.770,1.085,0.749,1.344,0.988,0.428,0.749,0.704,�k�k��,1.2,�L
2019/08/27,09:20,0.767,1.080,0.747,1.345,0.989,0.429,0.749,0.705,���k��,1.2,��
2019/08/27,09:30,0.767,1.084,0.750,1.343,0.988,0.429,0.748,0.705,���쓌,1.9,�L
2019/08/27,09:40,0.769,1.080,0.752,1.341,0.989,0.428,0.748,0.704,�쓌,1.5,�L
2019/08/27,09:50,0.769,1.082,0.751,1.341,0.990,0.429,0.747,0.705,-,CALM,��
2019/08/27,10:00,0.769,1.084,0.752,1.345,0.990,0.429,0.749,0.705,�쓌,1.2,��
2019/08/27,10:10,0.766,1.087,0.751,1.343,0.991,0.430,0.750,0.706,���k��,1.5,��
2019/08/27,10:20,0.770,1.085,0.752,1.342,0.990,0.428,0.751,0.706,�k��,1.9,��
2019/08/27,10:30,0.768,1.086,0.752,1.346,0.989,0.428,0.749,0.706,�k��,1.9,��
2019/08/27,10:40,0.770,1.086,0.751,1.345,0.989,0.430,0.750,0.706,�k��,2.6,��
2019/08/27,10:50,0.770,1.087,0.749,1.344,0.989,0.428,0.749,0.706,���k��,3.2,��
2019/08/27,11:00,0.769,1.086,0.749,1.345,0.987,0.430,0.751,0.707,���k��,3.4,��
2019/08/27,11:10,0.769,1.084,0.750,1.345,0.988,0.428,0.751,0.706,�k��,3.7,��
2019/08/27,11:20,0.768,1.078,0.748,1.345,0.986,0.429,0.747,0.706,���k��,4.7,��
2019/08/27,11:30,0.767,1.078,0.746,1.346,0.988,0.428,0.750,0.705,���k��,4.6,��
2019/08/27,11:40,0.769,1.075,0.749,1.345,0.988,0.429,0.749,0.707,���k��,3.3,��
2019/08/27,11:50,0.767,1.079,0.747,1.346,0.988,0.429,0.750,0.705,���쓌,3.6,��
2019/08/27,12:00,0.768,1.081,0.751,1.344,0.989,0.428,0.748,0.706,���쓌,4.7,��
2019/08/27,12:10,0.769,1.081,0.751,1.346,0.990,0.428,0.750,0.708,�쓌,3.5,��
2019/08/27,12:20,0.767,1.080,0.750,1.346,0.989,0.426,0.751,0.706,�쓌,4.4,��
2019/08/27,12:30,0.768,1.083,0.750,1.345,0.990,0.429,0.750,0.705,�쓌,3.7,��
2019/08/27,12:40,0.769,1.080,0.748,1.346,0.992,0.427,0.751,0.706,�쓌,4.3,��
2019/08/27,12:50,0.769,1.082,0.750,1.347,0.991,0.428,0.749,0.707,�쓌,5.3,��
2019/08/27,13:00,0.768,1.082,0.751,1.344,0.991,0.428,0.751,0.705,�쓌,4.5,��
2019/08/27,13:10,0.765,1.078,0.748,1.346,0.991,0.428,0.749,0.706,�쓌,4.8,��
2019/08/27,13:20,0.765,1.079,0.751,1.347,0.988,0.425,0.751,0.706,��쓌,5.0,��
2019/08/27,13:30,0.768,1.078,0.750,1.346,0.990,0.427,0.751,0.706,��쓌,4.5,��
2019/08/27,13:40,0.770,1.077,0.751,1.347,0.990,0.426,0.749,0.706,�쓌,3.4,��
2019/08/27,13:50,0.768,1.081,0.751,1.347,0.990,0.426,0.750,0.706,�쓌,3.6,��
2019/08/27,14:00,0.769,1.077,0.750,1.349,0.990,0.427,0.751,0.706,�쓌,3.5,��
2019/08/27,14:10,0.768,1.079,0.750,1.346,0.991,0.426,0.750,0.706,�쓌,3.6,��
2019/08/27,14:20,0.770,1.081,0.750,1.347,0.991,0.428,0.752,0.706,���쓌,2.5,��
2019/08/27,14:30,0.769,1.072,0.749,1.348,0.992,0.429,0.749,0.704,�쓌,2.0,��
2019/08/27,14:40,0.771,1.080,0.749,1.348,0.992,0.428,0.749,0.706,�쓌,2.9,��
2019/08/27,14:50,0.771,1.083,0.750,1.345,0.989,0.429,0.751,0.707,�쓌,3.7,�L
2019/08/27,15:00,0.769,1.079,0.751,1.349,0.990,0.429,0.749,0.706,���쓌,3.5,�L
2019/08/27,15:10,0.769,1.083,0.750,1.346,0.991,0.432,0.750,0.706,�쓌,3.5,�L
2019/08/27,15:20,0.772,1.083,0.753,1.345,0.993,0.431,0.753,0.705,�쓌,2.6,��
2019/08/27,15:30,0.772,1.084,0.754,1.347,0.992,0.429,0.751,0.704,�쓌,2.2,��
2019/08/27,15:40,0.771,1.081,0.751,1.347,0.994,0.429,0.751,0.705,�쓌,3.1,��
2019/08/27,15:50,0.774,1.084,0.754,1.346,0.992,0.432,0.752,0.706,��쓌,2.3,�L
2019/08/27,16:00,0.772,1.084,0.752,1.347,0.992,0.430,0.753,0.706,���쓌,2.3,��
2019/08/27,16:10,0.771,1.086,0.753,1.346,0.992,0.431,0.752,0.706,���쓌,2.3,��
2019/08/27,16:20,0.770,1.086,0.754,1.348,0.993,0.431,0.750,0.705,�쓌,1.7,��
2019/08/27,16:30,0.770,1.088,0.753,1.347,0.996,0.429,0.752,0.708,���쓌,1.7,��
2019/08/27,16:40,0.772,1.086,0.751,1.348,0.994,0.430,0.751,0.706,�k��,1.4,�L
2019/08/27,16:50,0.770,1.085,0.753,1.347,0.993,0.432,0.751,0.707,�쓌,2.6,�L
2019/08/27,17:00,0.770,1.084,0.750,1.344,0.992,0.432,0.751,0.707,��쐼,1.1,�L
2019/08/27,17:10,0.769,1.077,0.748,1.341,0.993,0.431,0.750,0.707,��,0.9,�L
2019/08/27,17:20,0.768,1.077,0.750,1.341,0.993,0.431,0.752,0.706,���쓌,1.5,��
2019/08/27,17:30,0.769,1.079,0.749,1.338,0.995,0.430,0.749,0.707,�쓌,1.7,��
2019/08/27,17:40,0.766,1.078,0.747,1.341,0.995,0.431,0.751,0.705,�쓌,3.1,��
2019/08/27,17:50,0.768,1.079,0.749,1.338,0.994,0.429,0.750,0.706,��쓌,6.2,�L
2019/08/27,18:00,0.769,1.080,0.748,1.338,0.987,0.430,0.749,0.707,��,4.8,�L
2019/08/27,18:10,0.767,1.078,0.748,1.339,0.983,0.430,0.749,0.707,��,4.9,��
2019/08/27,18:20,0.768,1.077,0.748,1.337,0.981,0.429,0.749,0.706,��쓌,5.3,��
2019/08/27,18:30,0.771,1.076,0.748,1.340,0.981,0.429,0.750,0.705,��쓌,5.0,��
2019/08/27,18:40,0.769,1.076,0.745,1.337,0.983,0.427,0.750,0.706,��쓌,5.6,��
2019/08/27,18:50,0.769,1.078,0.747,1.340,0.980,0.427,0.748,0.706,��쓌,4.7,��
2019/08/27,19:00,0.769,1.075,0.748,1.338,0.980,0.428,0.748,0.707,��,4.5,��
2019/08/27,19:10,0.770,1.076,0.747,1.338,0.980,0.426,0.750,0.705,��,4.7,��
2019/08/27,19:20,0.768,1.077,0.747,1.338,0.981,0.428,0.749,0.706,��,4.8,��
2019/08/27,19:30,0.768,1.077,0.746,1.338,0.980,0.428,0.749,0.705,��,5.3,��
2019/08/27,19:40,0.767,1.078,0.746,1.342,0.979,0.427,0.749,0.706,��,5.6,��
2019/08/27,19:50,0.767,1.076,0.746,1.338,0.981,0.428,0.748,0.707,��,5.1,��
2019/08/27,20:00,0.769,1.077,0.746,1.339,0.981,0.427,0.750,0.707,��,5.7,��
2019/08/27,20:10,0.767,1.075,0.746,1.337,0.980,0.427,0.751,0.706,��,5.0,��
2019/08/27,20:20,0.769,1.079,0.747,1.339,0.980,0.427,0.748,0.708,��쓌,4.9,��
2019/08/27,20:30,0.767,1.080,0.749,1.340,0.981,0.429,0.749,0.707,��,4.6,��
2019/08/27,20:40,0.766,1.074,0.748,1.340,0.982,0.430,0.749,0.706,��,6.2,��
2019/08/27,20:50,0.768,1.077,0.748,1.341,0.980,0.428,0.750,0.706,��,6.1,�L
2019/08/27,21:00,0.768,1.077,0.748,1.339,0.981,0.428,0.751,0.707,��,5.4,�L
2019/08/27,21:10,0.768,1.080,0.748,1.338,0.982,0.428,0.750,0.707,��,6.2,��
2019/08/27,21:20,0.769,1.078,0.748,1.339,0.982,0.429,0.749,0.705,��,5.2,��
2019/08/27,21:30,0.768,1.077,0.746,1.340,0.981,0.428,0.750,0.706,��,4.3,��
2019/08/27,21:40,0.769,1.077,0.746,1.338,0.982,0.430,0.749,0.707,��,4.4,��
2019/08/27,21:50,0.767,1.077,0.749,1.341,0.981,0.428,0.750,0.707,��,4.9,��
2019/08/27,22:00,0.769,1.079,0.747,1.338,0.982,0.428,0.749,0.706,��,5.3,��
2019/08/27,22:10,0.768,1.077,0.747,1.339,0.983,0.429,0.749,0.706,��,5.1,��
2019/08/27,22:20,0.768,1.079,0.748,1.338,0.981,0.429,0.749,0.707,��,4.5,��
2019/08/27,22:30,0.770,1.079,0.747,1.340,0.982,0.429,0.749,0.705,��쓌,4.6,�L
2019/08/27,22:40,0.768,1.080,0.748,1.341,0.981,0.429,0.750,0.706,��쓌,4.9,�L
2019/08/27,22:50,0.771,1.079,0.749,1.342,0.983,0.430,0.750,0.705,��,5.7,�L
2019/08/27,23:00,0.769,1.079,0.749,1.340,0.982,0.429,0.751,0.707,��쓌,6.0,�L
2019/08/27,23:10,0.768,1.080,0.749,1.341,0.984,0.429,0.749,0.706,��쓌,6.3,�L
2019/08/27,23:20,0.769,1.081,0.749,1.341,0.981,0.431,0.750,0.707,��,5.8,�L
2019/08/27,23:30,0.770,1.078,0.750,1.339,0.983,0.430,0.753,0.707,��,5.5,�L
2019/08/27,23:40,0.770,1.080,0.749,1.340,0.986,0.430,0.751,0.706,��,4.0,�L
2019/08/27,23:50,0.770,1.080,0.748,1.340,0.983,0.431,0.752,0.707,��,4.8,�L
